FW8419 Weather Reports


time (UTC)temp
C
wind
direction
speed
KPH
gust
KPH
rain 1hr
cm
rain 24hr
cm
rain mn
cm
humidity
%
barometer
mb
20260503181144 21 14 4.8 20.9 0.00 0.00 0.00 55 1013.4
20260503180124 20 26 6.4 12.9 0.00 0.00 0.00 55 1013.4
20260503175122 20 19 4.8 12.9 0.00 0.00 0.00 53 1013.5
20260503174124 20 18 3.2 12.9 0.00 0.00 0.00 56 1013.6
20260503173122 20 33 1.6 9.7 0.00 0.00 0.00 52 1013.7
20260503172124 19 21 1.6 8.0 0.00 0.00 0.00 53 1013.7
20260503171122 19 29 3.2 9.7 0.00 0.00 0.00 56 1013.8
20260503170122 19 38 1.6 8.0 0.00 0.00 0.00 53 1013.9
20260503160122 16 15 1.6 4.8 0.00 0.00 0.00 64 1014.6
20260503150143 15 241 1.6 4.8 0.00 0.00 0.00 73 1014.7
20260503140122 13 0 0.0 0.0 0.00 0.00 0.00 79 1014.5
20260503131145 11 0 0.0 0.0 0.00 0.00 0.00 83 1014.3
20260503130122 11 0 0.0 0.0 0.00 0.00 0.00 83 1014.4
20260503120122 12 0 0.0 0.0 0.00 0.00 0.00 82 1014.2
20260503110122 12 0 0.0 0.0 0.00 0.00 0.00 80 1014.4
20260503100124 13 219 1.6 4.8 0.00 0.00 0.00 77 1014.2
20260503090122 13 211 0.0 3.2 0.00 0.00 0.00 75 1014.2
20260503081124 14 0 0.0 0.0 0.00 0.00 0.00 73 1014.1
20260503080124 14 0 0.0 0.0 0.00 0.00 0.00 73 1014.2
20260503072122 15 208 0.0 3.2 0.00 0.00 0.00 72 1014.0
20260503071124 15 0 0.0 0.0 0.00 0.00 0.00 72 1013.9
20260503070122 15 0 0.0 0.0 0.00 0.00 0.00 72 1013.9
20260503060122 16 0 0.0 0.0 0.00 0.00 0.00 68 1013.5
20260503055124 16 0 0.0 0.0 0.00 0.00 0.00 68 1013.5
20260503054122 16 0 0.0 0.0 0.00 0.00 0.00 67 1013.4
20260503053123 17 1 0.0 8.0 0.00 0.00 0.00 66 1013.4
20260503052124 17 65 0.0 3.2 0.00 0.00 0.00 64 1013.4
20260503051122 17 208 0.0 4.8 0.00 0.00 0.00 63 1013.4
20260503050124 18 0 0.0 0.0 0.00 0.00 0.00 62 1013.4
20260503045143 18 0 0.0 0.0 0.00 0.00 0.00 61 1013.3
20260503044143 18 222 0.0 4.8 0.00 0.00 0.00 59 1013.3
20260503043122 19 223 0.0 3.2 0.00 0.00 0.00 57 1013.3
20260503042122 20 0 0.0 3.2 0.00 0.00 0.00 55 1013.2
20260503041143 20 0 0.0 3.2 0.00 0.00 0.00 54 1013.0
20260503040122 20 232 0.0 3.2 0.00 0.00 0.00 53 1013.0
20260503035122 21 289 1.6 8.0 0.00 0.00 0.00 51 1012.8
20260503034122 21 289 1.6 16.1 0.00 0.00 0.00 50 1012.7
20260503033124 21 274 1.6 9.7 0.00 0.00 0.00 49 1012.7
20260503032122 21 230 1.6 8.0 0.00 0.00 0.00 49 1012.6
20260503031123 22 257 1.6 12.9 0.00 0.00 0.00 48 1012.6
20260503030124 22 298 3.2 9.7 0.00 0.00 0.00 47 1012.6
20260503025122 22 297 3.2 12.9 0.00 0.00 0.00 46 1012.4
20260503024145 23 283 1.6 8.0 0.00 0.00 0.00 46 1012.3
20260503023122 23 274 1.6 9.7 0.00 0.00 0.00 45 1012.4
20260503022124 24 283 1.6 8.0 0.00 0.00 0.00 45 1012.4
20260503021124 24 278 3.2 9.7 0.00 0.00 0.00 45 1012.5
20260503020122 24 286 3.2 17.7 0.00 0.00 0.00 44 1012.5
20260503015122 24 281 3.2 16.1 0.00 0.00 0.00 44 1012.6
20260503014122 25 269 4.8 17.7 0.00 0.00 0.00 42 1012.6
20260503013122 25 263 4.8 16.1 0.00 0.00 0.00 41 1012.7
20260503012122 26 276 4.8 17.7 0.00 0.00 0.00 40 1012.7
20260503011123 26 288 4.8 16.1 0.00 0.00 0.00 40 1012.7
20260503010143 26 301 3.2 17.7 0.00 0.00 0.00 39 1012.7
20260503005145 26 320 4.8 12.9 0.00 0.00 0.00 39 1012.8
20260503004122 26 335 4.8 20.9 0.00 0.00 0.00 39 1012.8
20260503003122 26 324 6.4 20.9 0.00 0.00 0.00 39 1012.8
20260503002148 26 325 4.8 20.9 0.00 0.00 0.00 39 1013.0
20260503002144 26 323 4.8 20.9 0.00 0.00 0.00 40 1013.0
20260503001123 26 302 6.4 20.9 0.00 0.00 0.00 40 1013.1
20260503000124 26 321 4.8 16.1 0.00 0.00 0.00 41 1013.1
20260502235122 26 305 4.8 17.7 0.00 0.00 0.00 41 1013.2
20260502234122 26 316 3.2 12.9 0.00 0.00 0.00 44 1013.3
20260502233143 25 298 4.8 20.9 0.00 0.00 0.00 44 1013.4
20260502232122 25 288 6.4 22.5 0.00 0.00 0.00 45 1013.5
20260502231123 25 287 6.4 20.9 0.00 0.00 0.00 46 1013.6
20260502230143 25 299 4.8 22.5 0.00 0.00 0.00 46 1013.7
20260502225143 25 309 3.2 20.9 0.00 0.00 0.00 47 1013.8
20260502224122 24 332 4.8 20.9 0.00 0.00 0.00 48 1014.0
20260502223122 24 338 4.8 22.5 0.00 0.00 0.00 47 1014.2
20260502222122 24 322 6.4 25.7 0.00 0.00 0.00 46 1014.3
20260502221122 23 302 6.4 20.9 0.00 0.00 0.00 49 1014.4
20260502220122 23 284 4.8 20.9 0.00 0.00 0.00 50 1014.5
20260502215145 23 279 4.8 20.9 0.00 0.00 0.00 50 1014.7
20260502214122 23 276 8.0 22.5 0.00 0.00 0.00 49 1014.9
20260502213123 23 275 4.8 25.7 0.00 0.00 0.00 49 1015.0
20260502212122 23 283 9.7 30.6 0.00 0.00 0.00 49 1015.0
20260502211124 23 277 6.4 20.9 0.00 0.00 0.00 50 1015.0
20260502210124 23 263 6.4 29.0 0.00 0.00 0.00 51 1015.1
20260502205122 22 270 8.0 25.7 0.00 0.00 0.00 52 1015.3
20260502204122 22 269 8.0 29.0 0.00 0.00 0.00 53 1015.4
20260502203122 22 270 9.7 30.6 0.00 0.00 0.00 51 1015.6
20260502202122 22 248 8.0 25.7 0.00 0.00 0.00 50 1015.6
20260502201143 22 253 9.7 29.0 0.00 0.00 0.00 50 1015.7
20260502200124 22 271 8.0 29.0 0.00 0.00 0.00 52 1015.8
20260502195143 22 274 8.0 29.0 0.00 0.00 0.00 52 1016.0
20260502194145 21 262 6.4 29.0 0.00 0.00 0.00 55 1016.0
20260502193122 21 279 8.0 22.5 0.00 0.00 0.00 54 1016.2
20260502192145 21 271 4.8 17.7 0.00 0.00 0.00 57 1016.2
20260502191123 21 283 8.0 25.7 0.00 0.00 0.00 57 1016.3
20260502190122 21 287 8.0 22.5 0.00 0.00 0.00 56 1016.5
20260502185124 21 274 6.4 20.9 0.00 0.00 0.00 58 1016.4
20260502184122 21 281 3.2 16.1 0.00 0.00 0.00 58 1016.5
20260502183122 20 236 4.8 17.7 0.00 0.00 0.00 61 1016.6
20260502182123 20 221 1.6 8.0 0.00 0.00 0.00 61 1016.6